FW8050 Weather Reports


time (UTC)temp
C
wind
direction
speed
KPH
gust
KPH
rain 1hr
cm
rain 24hr
cm
rain mn
cm
humidity
%
barometer
mb
20260906141441 27 161 0.0 1.6 0.00 0.00 4.22 77 1013.7
20260906140942 26 360 0.0 0.0 0.00 0.00 4.22 77 1013.6
20260906140440 26 360 0.0 0.0 0.00 0.00 4.22 77 1013.6
20260906135944 26 360 0.0 0.0 0.00 0.00 4.22 77 1013.7
20260906135441 26 162 0.0 0.0 0.00 0.00 4.22 75 1013.7
20260906134940 26 152 0.0 3.2 0.00 0.00 4.22 78 1013.7
20260906134440 26 360 0.0 0.0 0.00 0.00 4.22 80 1013.8
20260906133941 25 360 0.0 0.0 0.00 0.00 4.22 82 1013.8
20260906133442 25 204 0.0 1.6 0.00 0.00 4.22 82 1014.0
20260906132941 25 153 1.6 3.2 0.00 0.00 4.22 80 1014.0
20260906132440 25 206 0.0 3.2 0.00 0.00 4.22 81 1014.1
20260906131941 25 360 0.0 0.0 0.00 0.00 4.22 82 1014.2
20260906131440 25 360 0.0 0.0 0.00 0.00 4.22 82 1014.2
20260906130940 24 360 0.0 0.0 0.00 0.00 4.22 85 1014.4
20260906130441 23 360 0.0 0.0 0.00 0.00 4.22 85 1014.5
20260906125941 23 149 0.0 1.6 0.00 0.00 4.22 88 1014.4
20260906125441 22 360 0.0 0.0 0.00 0.00 4.22 91 1014.3
20260906124940 22 203 0.0 1.6 0.00 0.00 4.22 92 1014.3
20260906124441 22 360 0.0 0.0 0.00 0.00 4.22 93 1014.3
20260906123941 21 282 0.0 1.6 0.00 0.00 4.22 92 1014.2
20260906123441 21 360 0.0 0.0 0.00 0.00 4.22 92 1014.2
20260906122940 21 360 0.0 0.0 0.00 0.00 4.22 93 1014.1
20260906122440 21 257 0.0 0.0 0.00 0.00 4.22 93 1014.1
20260906121940 21 360 0.0 0.0 0.00 0.00 4.22 94 1014.2
20260906121441 21 304 0.0 1.6 0.00 0.00 4.22 94 1014.2
20260906120941 21 360 0.0 0.0 0.00 0.00 4.22 94 1014.1
20260906120441 21 256 0.0 0.0 0.00 0.00 4.22 94 1014.1
20260906115941 21 360 0.0 0.0 0.00 0.00 4.22 94 1014.2
20260906115441 21 360 0.0 0.0 0.00 0.00 4.22 93 1014.2
20260906114941 21 217 0.0 1.6 0.00 0.00 4.22 93 1014.4
20260906114440 21 360 0.0 0.0 0.00 0.00 4.22 93 1014.4
20260906113940 21 275 0.0 0.0 0.00 0.00 4.22 93 1014.3
20260906113442 21 290 0.0 0.0 0.00 0.00 4.22 94 1014.2
20260906112941 21 360 0.0 0.0 0.00 0.00 4.22 94 1014.1
20260906112441 21 360 0.0 0.0 0.00 0.00 4.22 94 1014.1
20260906111941 21 360 0.0 0.0 0.00 0.00 4.22 94 1014.2
20260906111440 21 360 0.0 0.0 0.00 0.00 4.22 94 1014.2
20260906110940 21 360 0.0 0.0 0.00 0.00 4.22 94 1014.0
20260906110440 21 279 0.0 1.6 0.00 0.00 4.22 94 1013.9
20260906105941 21 129 0.0 1.6 0.00 0.00 4.22 93 1013.7
20260906105441 21 360 0.0 0.0 0.00 0.00 4.22 91 1013.8
20260906104940 21 196 0.0 1.6 0.00 0.00 4.22 92 1013.6
20260906104440 21 360 0.0 0.0 0.00 0.00 4.22 92 1013.4
20260906103942 21 320 0.0 1.6 0.00 0.00 4.22 92 1013.5
20260906103441 21 360 0.0 0.0 0.00 0.00 4.22 92 1013.4
20260906102940 21 299 0.0 3.2 0.00 0.00 4.22 93 1013.4
20260906102441 21 356 0.0 3.2 0.00 0.00 4.22 93 1013.4
20260906101940 21 360 0.0 0.0 0.00 0.00 4.22 93 1013.4
20260906101440 21 360 0.0 0.0 0.00 0.00 4.22 93 1013.5
20260906100940 21 345 0.0 3.2 0.00 0.00 4.22 93 1013.3
20260906100440 21 360 0.0 0.0 0.00 0.00 4.22 93 1013.2
20260906095940 21 360 0.0 0.0 0.00 0.00 4.22 93 1013.2
20260906095441 21 324 0.0 3.2 0.00 0.00 4.22 93 1013.1
20260906094940 21 270 0.0 0.0 0.00 0.00 4.22 93 1013.0
20260906094449 21 124 1.6 3.2 0.00 0.00 4.22 93 1013.1
20260906093940 21 360 0.0 0.0 0.00 0.00 4.22 93 1013.1
20260906093440 21 217 0.0 0.0 0.00 0.00 4.22 93 1012.9
20260906092941 21 208 0.0 1.6 0.00 0.00 4.22 92 1012.9
20260906092440 21 360 0.0 0.0 0.00 0.00 4.22 92 1012.9
20260906091940 21 231 0.0 1.6 0.00 0.00 4.22 92 1013.1
20260906091441 21 360 0.0 0.0 0.00 0.00 4.22 89 1013.1
20260906090451 22 307 0.0 0.0 0.13 0.00 4.22 87 1012.9
20260906085941 22 289 1.6 3.2 0.13 0.00 4.19 86 1013.1
20260906085441 22 334 3.2 4.8 0.13 0.00 4.19 84 1013.2
20260906084941 22 302 3.2 4.8 0.13 0.00 4.19 82 1013.0
20260906084441 23 316 3.2 6.4 0.15 0.00 4.19 82 1012.9
20260906083940 23 274 0.0 1.6 0.15 0.00 4.19 79 1012.4
20260906083441 22 53 0.0 3.2 0.15 0.00 4.19 80 1012.4
20260906082941 22 114 3.2 6.4 0.15 0.00 4.19 82 1012.3
20260906082442 22 138 3.2 8.0 0.15 0.00 4.19 85 1012.4
20260906081940 22 125 1.6 4.8 0.36 0.00 3.99 87 1012.4
20260906081440 22 347 3.2 6.4 0.36 0.00 3.99 90 1012.7
20260906080940 22 224 1.6 3.2 0.48 0.00 3.99 90 1013.0
20260906080441 22 208 1.6 6.4 0.46 0.00 3.96 90 1013.2
20260906075941 22 156 3.2 8.0 0.66 0.00 4.04 90 1013.3
20260906075440 21 43 3.2 6.4 2.57 0.00 4.04 91 1013.5
20260906074943 21 133 4.8 8.0 2.57 0.00 3.96 91 1013.7
20260906074440 21 132 1.6 6.4 2.59 0.00 3.96 92 1013.8
20260906073941 21 123 6.4 14.5 2.34 0.00 3.96 93 1014.1
20260906073443 22 134 4.8 11.3 2.34 0.00 3.71 93 1014.3
20260906072940 22 162 4.8 14.5 2.44 0.00 3.71 94 1014.5
20260906072441 22 122 3.2 8.0 2.54 0.00 3.71 94 1014.6
20260906071941 22 140 6.4 11.3 1.60 0.00 4.32 93 1014.8
20260906071441 22 14 1.6 3.2 1.63 0.00 4.32 94 1014.7
20260906070941 22 166 3.2 6.4 1.83 0.00 4.34 95 1014.9
20260906070442 22 188 3.2 6.4 3.51 0.00 4.34 94 1014.6
20260906065941 22 129 4.8 11.3 3.45 0.00 4.27 95 1014.1
20260906065440 22 332 3.2 3.2 2.77 0.00 3.58 95 1014.1
20260906064944 22 269 1.6 3.2 2.79 0.00 3.56 95 1013.8
20260906064440 22 308 1.6 3.2 3.40 0.00 3.56 94 1013.7
20260906063940 22 342 3.2 4.8 3.45 0.00 3.56 94 1013.9
20260906063440 22 337 1.6 4.8 2.74 0.00 2.77 94 1013.9
20260906062940 22 104 0.0 3.2 2.77 0.00 2.77 94 1013.8
20260906062440 23 82 1.6 3.2 1.17 0.00 2.74 94 1013.7
20260906061945 23 324 3.2 4.8 1.17 0.00 1.17 92 1013.8
20260906061441 23 205 0.0 3.2 1.04 0.00 1.17 91 1013.7
20260906060940 23 348 3.2 6.4 1.04 0.00 1.17 90 1013.5
20260906060440 23 184 1.6 3.2 1.04 0.00 1.04 86 1012.8
20260906055940 23 169 4.8 6.4 0.18 0.00 1.04 85 1012.8
20260906055440 23 135 3.2 6.4 0.08 0.00 1.04 89 1012.8
20260906054940 24 128 4.8 8.0 0.08 0.00 0.36 88 1012.8
20260906054441 25 91 1.6 4.8 0.08 0.00 0.15 87 1013.0
20260906053942 26 144 3.2 6.4 0.08 0.00 0.10 83 1013.1
20260906053440 26 137 1.6 4.8 0.00 0.00 0.03 80 1013.6
20260906052941 27 138 3.2 6.4 0.00 0.00 0.00 73 1013.5
20260906052440 26 144 3.2 9.7 0.00 0.00 0.00 72 1013.4
20260906051940 26 158 3.2 6.4 0.00 0.00 0.00 75 1013.5
20260906051440 26 77 3.2 6.4 0.00 0.00 0.00 77 1013.5
20260906050940 25 163 3.2 9.7 0.00 0.00 0.00 82 1013.4
20260906050441 25 7 0.0 3.2 0.00 0.00 0.00 82 1013.2
20260906045941 25 360 0.0 0.0 0.00 0.00 0.05 82 1013.0
20260906045448 25 360 0.0 0.0 0.00 0.00 0.05 82 1012.9
20260906044941 25 360 0.0 0.0 0.00 0.00 0.05 82 1012.9
20260906044440 25 360 0.0 0.0 0.00 0.00 0.05 82 1013.0
20260906043940 25 286 0.0 1.6 0.00 0.00 0.05 82 1013.2
20260906043441 25 360 0.0 0.0 0.00 0.00 0.05 82 1013.3
20260906042941 25 162 0.0 1.6 0.00 0.00 0.05 82 1013.3
20260906042441 25 360 0.0 0.0 0.00 0.00 0.05 82 1013.3
20260906041940 25 360 0.0 0.0 0.00 0.00 0.05 82 1013.4
20260906041440 25 360 0.0 0.0 0.00 0.00 0.05 82 1013.4
20260906040941 26 360 0.0 0.0 0.00 0.00 0.05 81 1013.4
20260906040440 26 190 0.0 0.0 0.00 0.00 0.05 81 1013.4
20260906035943 26 360 0.0 0.0 0.00 0.00 0.05 80 1013.5
20260906035440 26 360 0.0 0.0 0.00 0.00 0.05 80 1013.5
20260906034941 26 360 0.0 0.0 0.00 0.00 0.05 79 1013.5
20260906034441 26 262 0.0 1.6 0.00 0.00 0.05 79 1013.4
20260906033940 26 360 0.0 0.0 0.00 0.00 0.05 79 1013.4
20260906033441 26 360 0.0 0.0 0.00 0.00 0.05 79 1013.4
20260906032940 26 360 0.0 0.0 0.00 0.00 0.05 78 1013.4
20260906032440 26 360 0.0 0.0 0.00 0.00 0.05 77 1013.4
20260906031940 26 360 0.0 0.0 0.00 0.00 0.05 78 1013.4
20260906031441 26 360 0.0 0.0 0.00 0.00 0.05 77 1013.3
20260906030941 26 360 0.0 0.0 0.00 0.00 0.05 77 1013.3
20260906030440 27 360 0.0 0.0 0.00 0.00 0.05 78 1013.2
20260906025942 27 360 0.0 0.0 0.00 0.00 0.05 77 1013.3
20260906025443 27 360 0.0 0.0 0.00 0.00 0.05 74 1013.2
20260906024940 27 360 0.0 0.0 0.00 0.00 0.05 75 1013.2
20260906024441 27 292 0.0 1.6 0.00 0.00 0.05 76 1013.2
20260906023942 26 295 0.0 1.6 0.00 0.00 0.05 74 1013.0
20260906023441 26 360 0.0 0.0 0.00 0.00 0.05 79 1013.0
20260906022941 26 360 0.0 0.0 0.00 0.00 0.05 78 1012.9
20260906022442 26 254 0.0 1.6 0.00 0.00 0.05 78 1012.7
20260906021941 26 275 0.0 3.2 0.00 0.00 0.05 80 1012.7
20260906021441 26 199 0.0 1.6 0.00 0.00 0.05 79 1012.7
20260906020941 26 360 0.0 0.0 0.00 0.00 0.05 79 1012.7
20260906020443 26 207 1.6 3.2 0.00 0.00 0.05 79 1012.6
20260906015940 26 331 0.0 1.6 0.00 0.00 0.05 78 1012.6
20260906015440 26 360 0.0 0.0 0.00 0.00 0.05 79 1012.6
20260906014941 26 108 0.0 1.6 0.00 0.00 0.05 79 1012.4
20260906014440 26 360 0.0 0.0 0.00 0.00 0.05 79 1012.4
20260906013941 26 340 0.0 3.2 0.00 0.00 0.05 77 1012.3
20260906013441 27 360 0.0 0.0 0.00 0.00 0.05 78 1012.2
20260906012940 27 360 0.0 0.0 0.00 0.00 0.05 77 1012.1
20260906012440 27 360 0.0 0.0 0.00 0.00 0.05 77 1012.1
20260906011941 27 360 0.0 0.0 0.00 0.00 0.05 77 1012.0
20260906011440 27 360 0.0 0.0 0.00 0.00 0.05 78 1012.1
20260906010941 27 360 0.0 0.0 0.00 0.00 0.05 76 1012.1
20260906010441 27 360 0.0 0.0 0.00 0.00 0.05 77 1012.1
20260906005940 27 360 0.0 0.0 0.00 0.00 0.05 77 1012.0
20260906005441 27 271 0.0 1.6 0.00 0.00 0.05 76 1012.0
20260906004941 27 278 0.0 0.0 0.00 0.00 0.05 76 1012.0
20260906004440 27 360 0.0 0.0 0.00 0.00 0.05 76 1011.9
20260906003941 27 360 0.0 0.0 0.00 0.00 0.05 74 1011.9
20260906003441 27 271 0.0 0.0 0.05 0.00 0.05 74 1011.9
20260906002941 27 297 0.0 1.6 0.05 0.00 0.05 76 1011.9
20260906002443 27 242 0.0 3.2 0.05 0.00 0.05 77 1012.0
20260906001940 27 236 0.0 3.2 0.05 0.00 0.05 77 1012.0
20260906001440 27 360 0.0 0.0 0.05 0.00 0.05 77 1012.2
20260906000941 27 226 0.0 1.6 0.05 0.00 0.05 79 1012.3
20260906000441 27 237 1.6 3.2 0.05 0.00 0.05 82 1012.7
20260905235940 27 216 1.6 3.2 0.05 0.00 0.05 78 1012.8
20260905235441 27 223 0.0 3.2 0.05 0.00 0.05 78 1013.0
20260905234941 27 38 1.6 4.8 0.05 0.00 0.05 80 1012.8
20260905234441 27 187 0.0 3.2 0.05 0.00 0.05 78 1012.7
20260905233941 28 287 1.6 3.2 0.05 0.00 0.05 80 1012.6
20260905233440 30 314 3.2 3.2 0.05 0.00 0.05 74 1012.1
20260905232940 32 272 1.6 3.2 0.05 0.00 0.05 59 1011.9
20260905232441 32 14 0.0 3.2 0.00 0.00 0.00 55 1011.8
20260905231941 32 360 0.0 0.0 0.00 0.00 0.00 55 1011.6
20260905231451 33 360 0.0 0.0 0.00 0.00 0.00 55 1011.6
20260905230940 33 360 0.0 0.0 0.00 0.00 0.00 54 1011.6
20260905230440 33 131 0.0 1.6 0.00 0.00 0.00 53 1011.6
20260905225940 33 360 0.0 0.0 0.00 0.00 0.00 52 1011.5
20260905225442 34 148 1.6 4.8 0.00 0.00 0.00 54 1011.5
20260905224941 34 360 0.0 0.0 0.00 0.00 0.00 52 1011.3
20260905224440 34 360 0.0 0.0 0.00 0.00 0.00 52 1011.3
20260905223940 34 360 0.0 0.0 0.00 0.00 0.00 50 1011.4
20260905223440 34 198 1.6 3.2 0.00 0.00 0.00 49 1011.4
20260905222941 34 253 0.0 1.6 0.00 0.00 0.00 51 1011.4
20260905222443 34 270 0.0 1.6 0.00 0.00 0.00 51 1011.4
20260905221940 35 193 1.6 3.2 0.00 0.00 0.00 49 1011.4
20260905221440 35 158 1.6 4.8 0.00 0.00 0.00 48 1011.4
20260905220941 35 195 1.6 3.2 0.00 0.00 0.00 48 1011.5
20260905220441 35 157 1.6 4.8 0.00 0.00 0.00 48 1011.5
20260905215940 35 212 1.6 3.2 0.00 0.00 0.00 48 1011.5
20260905215442 35 360 0.0 0.0 0.00 0.00 0.00 49 1011.6
20260905214941 35 360 0.0 0.0 0.00 0.00 0.00 48 1011.6
20260905214441 35 246 0.0 0.0 0.00 0.00 0.00 47 1011.6
20260905213940 35 155 3.2 3.2 0.00 0.00 0.00 47 1011.6
20260905213440 35 128 0.0 3.2 0.00 0.00 0.00 47 1011.6
20260905212940 35 155 1.6 4.8 0.00 0.00 0.00 45 1011.6
20260905212440 35 157 1.6 4.8 0.00 0.00 0.00 45 1011.6
20260905211940 35 178 1.6 3.2 0.00 0.00 0.00 46 1011.6
20260905211440 35 148 4.8 6.4 0.00 0.00 0.00 45 1011.6
20260905210940 36 147 3.2 4.8 0.00 0.00 0.00 45 1011.6
20260905210441 35 196 0.0 4.8 0.00 0.00 0.00 46 1011.6
20260905205941 36 360 0.0 0.0 0.00 0.00 0.00 48 1011.6
20260905205447 36 194 0.0 0.0 0.00 0.00 0.00 47 1011.6
20260905204943 36 152 3.2 4.8 0.00 0.00 0.00 45 1011.7
20260905204441 36 155 1.6 4.8 0.00 0.00 0.00 45 1011.9
20260905203940 36 150 1.6 4.8 0.00 0.00 0.00 46 1011.9
20260905203440 36 170 0.0 3.2 0.00 0.00 0.00 45 1011.9
20260905202942 36 162 1.6 3.2 0.00 0.00 0.00 44 1012.1
20260905202440 36 157 0.0 3.2 0.00 0.00 0.00 45 1012.1
20260905201940 36 191 0.0 3.2 0.00 0.00 0.00 45 1012.1
20260905201441 36 173 3.2 4.8 0.00 0.00 0.00 46 1012.2
20260905200941 36 143 3.2 6.4 0.00 0.00 0.00 46 1012.2
20260905200441 36 151 3.2 6.4 0.00 0.00 0.00 44 1012.3
20260905195941 36 152 1.6 3.2 0.00 0.00 0.00 46 1012.6
20260905195441 36 193 3.2 4.8 0.00 0.00 0.00 45 1012.6
20260905194941 37 161 3.2 6.4 0.00 0.00 0.00 44 1012.7
20260905194441 37 192 3.2 3.2 0.00 0.00 0.00 44 1012.8
20260905193940 37 168 0.0 4.8 0.00 0.00 0.00 45 1012.8
20260905193441 37 152 4.8 6.4 0.00 0.00 0.00 44 1012.8
20260905192941 37 183 1.6 4.8 0.00 0.00 0.00 44 1012.8
20260905192442 37 96 0.0 6.4 0.00 0.00 0.00 44 1012.9
20260905191941 37 205 3.2 3.2 0.00 0.00 0.00 43 1013.0
20260905191441 37 173 1.6 3.2 0.00 0.00 0.00 43 1013.1
20260905190941 37 173 1.6 3.2 0.00 0.00 0.00 44 1013.2
20260905190441 37 134 3.2 6.4 0.00 0.00 0.00 44 1013.3
20260905185940 37 147 4.8 8.0 0.00 0.00 0.00 43 1013.4
20260905185440 36 164 1.6 9.7 0.00 0.00 0.00 46 1013.5
20260905184942 37 185 1.6 3.2 0.00 0.00 0.00 47 1013.5
20260905184440 37 119 0.0 1.6 0.00 0.00 0.00 43 1013.5
20260905183943 37 187 3.2 4.8 0.00 0.00 0.00 45 1013.7
20260905183440 37 174 3.2 4.8 0.00 0.00 0.00 45 1013.7
20260905182941 37 181 1.6 4.8 0.00 0.00 0.00 48 1013.8
20260905182441 37 171 3.2 8.0 0.00 0.00 0.00 46 1013.8
20260905181940 37 153 3.2 6.4 0.00 0.00 0.00 47 1013.8
20260905181440 37 201 1.6 3.2 0.00 0.00 0.00 47 1013.9
20260905180941 37 155 3.2 8.0 0.00 0.00 0.00 46 1014.0
20260905180441 37 202 1.6 3.2 0.00 0.00 0.00 46 1014.1
20260905175958 36 168 4.8 9.7 0.00 0.00 0.00 46 1014.1
20260905175441 36 218 1.6 3.2 0.00 0.00 0.00 49 1014.2
20260905174941 37 226 3.2 3.2 0.00 0.00 0.00 48 1014.1
20260905174441 37 138 1.6 3.2 0.00 0.00 0.00 49 1014.2
20260905173940 37 179 4.8 8.0 0.00 0.00 0.00 47 1014.2
20260905173440 36 165 3.2 6.4 0.00 0.00 0.00 49 1014.2
20260905172941 37 172 3.2 6.4 0.00 0.00 0.00 48 1014.3
20260905172441 36 151 3.2 6.4 0.00 0.00 0.00 48 1014.4
20260905171941 36 189 3.2 4.8 0.00 0.00 0.00 51 1014.5
20260905171441 36 223 1.6 3.2 0.00 0.00 0.00 51 1014.5
20260905170940 36 131 3.2 9.7 0.00 0.00 0.00 49 1014.6
20260905170441 36 150 1.6 6.4 0.00 0.00 0.00 49 1014.6
20260905165942 35 173 1.6 6.4 0.00 0.00 0.00 50 1014.6
20260905165440 35 193 3.2 4.8 0.00 0.00 0.00 53 1014.6
20260905164941 35 142 3.2 4.8 0.00 0.00 0.00 54 1014.7
20260905164441 35 160 3.2 6.4 0.00 0.00 0.00 53 1014.8
20260905163941 34 147 4.8 8.0 0.00 0.00 0.00 54 1014.9
20260905163441 34 125 3.2 4.8 0.00 0.00 0.00 54 1015.0
20260905162940 34 143 3.2 6.4 0.00 0.00 0.00 55 1015.1
20260905162441 34 143 4.8 9.7 0.00 0.00 0.00 55 1015.2
20260905161940 33 141 3.2 6.4 0.00 0.00 0.00 57 1015.2
20260905161441 34 139 3.2 6.4 0.00 0.00 0.00 57 1015.2
20260905160941 34 150 6.4 9.7 0.00 0.00 0.00 56 1015.3
20260905160440 34 142 3.2 6.4 0.00 0.00 0.00 57 1015.3
20260905155941 35 140 3.2 6.4 0.00 0.00 0.00 54 1015.4
20260905155440 34 148 0.0 4.8 0.00 0.00 0.00 55 1015.4
20260905154942 33 171 1.6 6.4 0.00 0.00 0.00 59 1015.4
20260905154441 33 176 3.2 6.4 0.00 0.00 0.00 57 1015.4
20260905153941 33 145 0.0 0.0 0.00 0.00 0.00 58 1015.5
20260905153441 33 190 1.6 3.2 0.00 0.00 0.00 60 1015.5
20260905152941 34 217 3.2 3.2 0.00 0.00 0.00 60 1015.5
20260905152441 33 157 1.6 3.2 0.00 0.00 0.00 58 1015.5
20260905151943 33 194 0.0 1.6 0.00 0.00 0.00 61 1015.5
20260905151441 33 177 0.0 3.2 0.00 0.00 0.00 62 1015.5
20260905150940 32 360 0.0 0.0 0.00 0.00 0.00 63 1015.5
20260905150441 32 196 1.6 3.2 0.00 0.00 0.00 66 1015.5
20260905145941 31 155 1.6 4.8 0.00 0.00 0.00 67 1015.5
20260905145440 31 215 0.0 3.2 0.00 0.00 0.00 69 1015.4
20260905144941 31 139 0.0 3.2 0.00 0.00 0.00 70 1015.4
20260905144440 31 360 0.0 0.0 0.00 0.00 0.00 71 1015.5
20260905143943 31 138 0.0 3.2 0.00 0.00 0.00 71 1015.6
20260905143440 30 154 0.0 1.6 0.00 0.00 0.00 71 1015.6
20260905142941 30 156 0.0 3.2 0.00 0.00 0.00 72 1015.7
20260905142440 29 360 0.0 0.0 0.00 0.00 0.00 74 1015.7
20260905141940 29 360 0.0 0.0 0.00 0.00 0.00 75 1015.7